User: anonymous   Login
Location: Bishop�s Knoyle
(51.0728°N, 2.1714°W)
Time: 03:53:56
(UTC+00:00)
Language:

BEESAT 2 - Orbit

View from above orbital plane
View from above orbital plane
View from above satellite
View from above satellite

Ground track
Ground track

The orbit data is extracted from the following two-line orbital elements,

1 39136U 13015G   21332.89306290  .00003016  00000-0  15001-3 0  9990
2 39136  64.8769  36.3912 0014052 246.4560 113.5092 15.19599399475419
Epoch (UTC): 28 November 2021 21:26:00
Eccentricity: 0.0014052
inclination: 64.8769°
perigee height: 497 km
apogee height: 517 km
right ascension of ascending node: 36.3912°
argument of perigee: 246.4560°
revolutions per day: 15.19599399
mean anomaly at epoch: 113.5092°
orbit number at epoch: 47541

The dashed part of the orbit path shows where the satellite is in the earth's shadow,  

DLR